[[{"header":{"parameterUnit":"m.s-1","parameterCategory":1,"la1":30.2992,"la2":30.254,"lo1":-89.0895,"lo2":-89.0443,"dy":0.0025,"dx":0.0025,"nx":19,"ny":19,"refTime":"2026-04-02T21:00:00:Z","depth":0,"parameterNumber":2,"parameterNumberName":"U-component_of_WINDS"},"data":[0,0,0,-4.5895,-4.5898,-4.6048,-4.6048,-4.6239,-4.6241,0,0,0,0,0,0,0,0,0,0,0,-4.5851,-4.5852,-4.5895,-4.5899,-4.6048,-4.6048,-4.6239,-4.6241,0,0,0,0,0,0,0,0,0,0,0,-4.585,-4.5852,-4.5854,-4.5899,-4.6048,-4.6048,-4.6238,-4.6126,0,0,0,0,0,0,0,0,0,0,-4.5981,-4.594,-4.5852,-4.5854,-4.59,-4.6047,-4.6048,-4.612,-4.6133,-4.6172,0,-4.6207,0,-4.6227,-4.6254,-4.6254,0,0,0,-4.5898,-4.593,-4.597,-4.5854,-4.5901,-4.6047,-4.598,-4.6127,-4.6141,-4.6188,-4.6209,-4.6217,-4.623,-4.6255,-4.6256,-4.6484,-4.6485,0,0,-4.589,-4.5878,-4.596,-4.5979,-4.5957,-4.5975,-4.5985,-4.6136,-4.6158,-4.621,-4.6221,-4.6233,-4.6256,-4.6258,-4.6483,-4.6484,0,0,0,-4.5866,-4.5872,-4.5909,-4.5972,-4.5998,-4.598,-4.5991,-4.6151,-4.6164,-4.6223,-4.6236,-4.6257,-4.626,-4.6482,-4.6483,-4.6524,0,0,0,-4.5861,-4.5858,-4.5905,-4.5899,-4.5996,-4.6077,-4.6002,-4.6154,-4.6171,-4.6235,-4.6257,-4.6262,-4.648,-4.6482,-4.652,-4.6544,0,0,0,-4.5841,-4.5856,-4.5878,-4.5898,-4.5962,-4.6075,-4.6096,-4.6158,-4.6179,-4.6255,-4.6262,-4.648,-4.6482,-4.6517,-4.6539,-4.66,0,0,0,-4.5816,-4.5912,-4.5878,-4.5991,-4.5961,-4.61,-4.6095,-4.6199,-4.6269,-4.6258,-4.648,-4.6483,-4.6516,-4.6536,-4.6597,-4.6648,-4.6669,0,0,-4.593,-4.5925,-4.5992,-4.5967,-4.6108,-4.6078,-4.6226,-4.6301,-4.6319,-4.6428,-4.6434,-4.6522,-4.6539,-4.6599,-4.6793,-4.6809,0,0,0,-4.6024,-4.6072,-4.6112,-4.6179,-4.624,-4.6294,-4.6348,-4.6377,-4.647,-4.6373,-4.6562,-4.6572,-4.6608,-4.6633,-4.6647,-4.6678,-4.6495,-4.6494,-4.6494,-4.6166,-4.6186,-4.6298,-4.6336,-4.6401,-4.6457,-4.6512,-4.6559,-4.6559,-4.6604,-4.6635,-4.675,-4.6779,-4.6789,-4.6822,-4.6666,-4.6666,-4.6666,-4.6666,-4.6333,-4.6403,-4.6404,-4.6512,-4.6533,-4.6624,-4.6683,-4.668,-4.6768,-4.6728,-4.676,-4.6712,-4.6807,-4.6836,-4.6669,-4.6669,-4.6668,-4.6668,-4.6668,-4.6426,-4.6463,-4.6498,-4.6597,-4.6672,-4.6708,-4.6793,-4.6809,-4.6824,-4.6857,-4.6891,-4.6891,-4.689,-4.6873,-4.6873,-4.6874,-4.6874,-4.6874,-4.6875,-4.6508,-4.6545,-4.6615,-4.669,-4.6735,-4.6798,-4.6858,-4.6903,-4.6957,-4.6962,-4.6962,-4.6957,-4.6814,-4.6775,-4.6881,-4.688,-4.6879,-4.6878,-4.6878,-4.6666,-4.6633,-4.6741,-4.6787,-4.6876,-4.695,-4.6971,-4.7062,-4.7102,-4.7144,-4.7134,-4.7025,-4.7021,-4.701,-4.6978,-4.713,-4.713,-4.713,-4.713,-4.6742,-4.6743,-4.6857,-4.6929,-4.7003,-4.7033,-4.7154,-4.7203,-4.7248,-4.7274,-4.7255,-4.7216,-4.7204,-4.7207,-4.7191,-4.7162,-4.7357,-4.7357,-4.7357,-4.684,-4.6849,-4.6948,-4.6992,-4.7064,-4.7126,-4.724,-4.7324,-4.7368,-4.7367,-4.7294,-4.7285,-4.7222,-4.7201,-4.7194,-4.717,-4.7116,0,0]},{"header":{"parameterUnit":"m.s-1","parameterCategory":1,"la1":30.2992,"la2":30.254,"lo1":-89.0895,"lo2":-89.0443,"dy":0.0025,"dx":0.0025,"nx":19,"ny":19,"refTime":"2026-04-02T21:00:00:Z","depth":0,"parameterNumber":3,"parameterNumberName":"V-component_of_WINDS"},"data":[0,0,0,4.4836,4.4839,4.4963,4.4964,4.5117,4.5118,0,0,0,0,0,0,0,0,0,0,0,4.4798,4.4799,4.4836,4.4839,4.4963,4.4964,4.5117,4.5118,0,0,0,0,0,0,0,0,0,0,0,4.4798,4.4799,4.48,4.484,4.4963,4.4964,4.5116,4.5024,0,0,0,0,0,0,0,0,0,0,4.4904,4.4869,4.4799,4.4801,4.484,4.4963,4.4964,4.5019,4.503,4.5059,0,4.5087,0,4.5105,4.5128,4.5129,0,0,0,4.4839,4.486,4.4895,4.4801,4.4841,4.4963,4.4907,4.5025,4.5037,4.5072,4.5089,4.5095,4.5108,4.5129,4.513,4.5308,4.5309,0,0,4.4832,4.4819,4.4887,4.4903,4.4886,4.4903,4.4911,4.5032,4.5049,4.509,4.5099,4.5111,4.513,4.5131,4.5307,4.5308,0,0,0,4.4812,4.4814,4.4847,4.4896,4.4919,4.4907,4.4916,4.5043,4.5055,4.51,4.5112,4.5131,4.5133,4.5306,4.5307,4.5339,0,0,0,4.4808,4.4803,4.4844,4.4837,4.4917,4.4983,4.4924,4.5047,4.5061,4.5112,4.5131,4.5134,4.5305,4.5307,4.5336,4.5355,0,0,0,4.479,4.4801,4.4819,4.4836,4.489,4.4982,4.5,4.505,4.5068,4.5129,4.5135,4.5305,4.5307,4.5333,4.5351,4.5399,0,0,0,4.4767,4.4843,4.4819,4.4909,4.4889,4.5001,4.5,4.5083,4.514,4.5132,4.5305,4.5307,4.5333,4.5348,4.5396,4.5437,4.5453,0,0,4.4855,4.4853,4.4907,4.489,4.5004,4.4983,4.5101,4.5162,4.5178,4.5263,4.5267,4.5337,4.535,4.5398,4.5548,4.5561,0,0,0,4.493,4.4969,4.5002,4.5057,4.5108,4.5153,4.5198,4.5221,4.5295,4.522,4.5368,4.5376,4.5404,4.5424,4.5435,4.546,4.5316,4.5316,4.5316,4.5036,4.5055,4.5145,4.518,4.5233,4.5281,4.5325,4.5363,4.5364,4.5399,4.5424,4.5513,4.5536,4.5544,4.557,4.5447,4.5447,4.5448,4.5448,4.5167,4.5224,4.5228,4.5317,4.5336,4.5409,4.5458,4.5457,4.5527,4.5495,4.5521,4.5485,4.5558,4.5581,4.545,4.545,4.5449,4.5449,4.5449,4.5238,4.5269,4.5299,4.5382,4.5443,4.5474,4.5543,4.5557,4.557,4.5596,4.5624,4.5623,4.5624,4.5608,4.5609,4.5609,4.5609,4.5609,4.561,4.53,4.5332,4.539,4.5453,4.5491,4.5543,4.5593,4.563,4.5674,4.5678,4.5679,4.5676,4.5562,4.5533,4.5615,4.5614,4.5613,4.5613,4.5612,4.5425,4.54,4.5488,4.5527,4.5603,4.5663,4.5682,4.5756,4.5788,4.5821,4.5814,4.5729,4.5725,4.5717,4.5693,4.5811,4.5811,4.5811,4.5811,4.5484,4.5486,4.5581,4.5642,4.5703,4.573,4.5828,4.5868,4.5904,4.5925,4.591,4.588,4.5871,4.5873,4.5861,4.5839,4.5991,4.5991,4.5992,4.5562,4.5571,4.5653,4.5692,4.5753,4.5804,4.5897,4.5965,4.6,4.5999,4.5942,4.5934,4.5885,4.5868,4.5864,4.5845,4.5805,0,0]}]]